Location: Memmingen
(47.9830°N, 10.1733°E)
Time: 03:02:34
(UTC+01:00)

ISS - Visible Passes

Search period start: 18 January 2018 00:00
Search period end: 28 January 2018 00:00
Orbit: 402 x 407 km, 51.6° (Epoch: 18 January)

Date Brightness Start Highest point End Pass type
(mag) Time Alt. Az. Time Alt. Az. Time Alt. Az.
25 Jan -0.9 19:45:44 10° SW 19:46:12 13° SW 19:46:12 13° SW visible
26 Jan -2.4 18:53:50 10° SSW 18:56:18 25° SSE 18:56:18 25° SSE visible
27 Jan -1.8 18:02:22 10° S 18:04:26 16° SE 18:06:18 11° E visible
27 Jan -2.0 19:37:13 10° WSW 19:38:58 29° WSW 19:38:58 29° WSW visible
